Volver al catálogo

USA 40 R/B DEB

LostHEO
NORAD 23376·DEBRIS·🇺🇸 United States

Lanzado Aug 8, 1989 desde Cape Canaveral Space Force Station

Loading…

Próximos Pases (próximas 24 horas)

TLE

ObsoletoSource: Space-Track

Época: Feb 11, 2022, 03:18 UTC

1 23376U 89061AY  22042.13766296  .00026066  00000-0  17948-1 0  9995
2 23376  56.9692 201.9510 2758034 153.8584 223.2664  9.34773802101663

Sigue USA 40 R/B DEB en tiempo real con AllMySat

Download on the App Store